Flag for U.S.A. Weather past 2 weeks in Atlanta, Georgia, U.S.A.

Now
73 °F

Clear.


Feels Like: 71 °F
Forecast: 71 / 89 °F
Wind: No wind

Location: Fulton County Airport-Brown Field

Current Time: Sep 2, 2014 at 3:46:58 AM

Latest Report: Sep 2, 2014 at 2:53 AM


Visibility: 10 mi

Pressure: 30.05 "Hg

Humidity: 90%

Dew point: 70 °F

Location of AtlantaLocation

Historic Weather in Atlanta — Graph

°F

Atlanta temperature yesterday

Maximum temperature yesterday: 90 °F (at 3:53 PM)
Minimum temperature yesterday: 71 °F (at 6:53 AM)
Average temperature yesterday: 79 °F

Past Weeks' High & Low Weather Summary

 TemperatureHumidityPressure
High92 °F (Aug 22, 3:53 PM)96% (Aug 31, 2:53 AM)30.18 "Hg (Aug 31, 2:53 AM)
Low61 °F (Aug 27, 6:53 AM)26% (Aug 28, 6:53 PM)29.85 "Hg (Aug 18, 4:53 PM)
Average78 °F73%30.02 "Hg
* Reported Aug 18 1:53 AM — Sep 2 1:53 AM, Atlanta, Weather by CustomWeather, © 2014

Note: Actual official high and low records may vary slightly from our data, if they occured in-between our weather recording intervals... More about our weather records

Advertising

Atlanta weather history for previous 24 hours

 ConditionsComfort  
Time TempWeatherWind HumidityBarometerVisibility
1:53 AM
Sep 2
74 °FClear.3 mph88%30.06 "Hg10 mi
12:53 AM73 °FClear.No wind90%30.07 "Hg10 mi
11:53 PM
Sep 1
77 °FClear.No wind79%30.09 "Hg10 mi
10:53 PM76 °FPassing clouds.No wind82%30.10 "Hg10 mi
9:53 PM79 °FClear.3 mph72%30.08 "Hg10 mi
8:53 PM79 °FSunny.7 mph74%30.06 "Hg10 mi
7:53 PM81 °FPartly sunny.3 mph67%30.05 "Hg10 mi
6:53 PM82 °FSunny.7 mph67%30.04 "Hg10 mi
5:53 PM85 °FPassing clouds.8 mph65%30.03 "Hg10 mi
4:53 PM89 °FSunny.5 mph53%30.03 "Hg10 mi
3:53 PM90 °FSunny.No wind52%30.04 "Hg10 mi
2:53 PM88 °FPartly sunny.6 mph55%30.07 "Hg10 mi
1:53 PM89 °FSunny.3 mph55%30.09 "Hg10 mi
12:53 PM85 °FSunny.No wind59%30.11 "Hg10 mi
11:53 AM84 °FSunny.5 mph63%30.12 "Hg10 mi
10:53 AM84 °FSunny.No wind67%30.11 "Hg10 mi
9:53 AM81 °FSunny.3 mph74%30.11 "Hg10 mi
8:53 AM76 °FSunny.No wind85%30.12 "Hg10 mi
7:53 AM71 °FClear.No wind93%30.10 "Hg9 mi
6:53 AM71 °FClear.No wind93%30.09 "Hg10 mi
5:53 AM72 °FClear.No wind91%30.08 "Hg10 mi
4:53 AM72 °FClear.No wind93%30.07 "Hg10 mi
3:53 AM73 °FClear.No wind90%30.06 "Hg10 mi
Weather by CustomWeather, © 2014

See weather overviewHow to use our weather pages